User: anonymous   Login
Location: Unspecified
(0.0000°N, 0.0000°E)
Time: 23:02:29
(UTC+00:00)
Language:

Tubsat - Orbit

View from above orbital plane
View from above orbital plane
View from above satellite
View from above satellite

Ground track
Ground track

The orbit data is extracted from the following two-line orbital elements,

1 25757U 99029B   18344.47578624 -.00000003  00000-0  10736-4 0  9993
2 25757  98.4088 261.4353 0015553  85.5546 274.7425 14.51393547 34999
Epoch (UTC): 10 December 2018 11:25:07
Eccentricity: 0.0015553
inclination: 98.4088°
perigee height: 710 km
apogee height: 732 km
right ascension of ascending node: 261.4353°
argument of perigee: 85.5546°
revolutions per day: 14.51393547
mean anomaly at epoch: 274.7425°
orbit number at epoch: 3499

The dashed part of the orbit path shows where the satellite is in the earth's shadow,  

DLR